| time (UTC) | temp F | wind direction | speed MPH | gust MPH | rain 1hr in | rain 24hr in | rain mn in | humidity % | barometer mb |
| 20260506083109 | 44 | 339 | 2.0 | 5.0 | 0.00 | 0.01 | 0.00 | 73 | 1008.0 |
| 20260506082621 | 44 | 339 | 2.0 | 5.0 | 0.00 | 0.01 | 0.00 | 73 | 1008.0 |
| 20260506082555 | 45 | 338 | 2.0 | 3.0 | 0.00 | 0.01 | 0.00 | 73 | 1008.1 |
| 20260506082348 | 45 | 338 | 2.0 | 3.0 | 0.00 | 0.01 | 0.00 | 73 | 1008.1 |
| 20260506080619 | 45 | 333 | 1.0 | 4.0 | 0.00 | 0.01 | 0.00 | 71 | 1007.9 |
| 20260506072603 | 46 | 335 | 2.0 | 5.0 | 0.00 | 0.01 | 0.00 | 65 | 1007.7 |
| 20260506071602 | 46 | 344 | 1.0 | 3.0 | 0.00 | 0.01 | 0.00 | 63 | 1007.8 |
| 20260506071051 | 46 | 306 | 1.0 | 4.0 | 0.00 | 0.01 | 0.00 | 62 | 1007.6 |
| 20260506070602 | 46 | 306 | 1.0 | 4.0 | 0.00 | 0.01 | 0.00 | 62 | 1007.6 |
| 20260506070552 | 47 | 277 | 2.0 | 5.0 | 0.00 | 0.01 | 0.00 | 61 | 1007.8 |
| 20260506070332 | 47 | 277 | 2.0 | 5.0 | 0.00 | 0.01 | 0.00 | 61 | 1007.8 |
| 20260506062051 | 47 | 345 | 2.0 | 6.0 | 0.00 | 0.01 | 0.00 | 58 | 1007.8 |
| 20260506061809 | 47 | 345 | 2.0 | 6.0 | 0.00 | 0.01 | 0.00 | 58 | 1007.8 |
| 20260506060559 | 47 | 312 | 1.0 | 7.0 | 0.00 | 0.01 | 0.00 | 58 | 1007.7 |
| 20260506050554 | 48 | 38 | 3.0 | 7.0 | 0.00 | 0.01 | 0.00 | 53 | 1007.5 |
| 20260506045030 | 48 | 278 | 2.0 | 6.0 | 0.00 | 0.02 | 0.00 | 53 | 1007.3 |
| 20260506044807 | 48 | 278 | 2.0 | 6.0 | 0.00 | 0.02 | 0.00 | 53 | 1007.3 |
| 20260506044040 | 48 | 288 | 2.0 | 7.0 | 0.00 | 0.02 | 0.00 | 53 | 1007.4 |
| 20260506043554 | 48 | 288 | 2.0 | 7.0 | 0.00 | 0.02 | 0.00 | 53 | 1007.4 |
| 20260506042553 | 49 | 301 | 2.0 | 7.0 | 0.00 | 0.02 | 0.00 | 52 | 1007.3 |
| 20260506042032 | 49 | 0 | 2.0 | 7.0 | 0.00 | 0.02 | 0.00 | 53 | 1007.5 |
| 20260506041553 | 49 | 0 | 2.0 | 7.0 | 0.00 | 0.02 | 0.00 | 53 | 1007.5 |
| 20260506040550 | 49 | 0 | 2.0 | 9.0 | 0.00 | 0.02 | 0.00 | 52 | 1007.5 |
| 20260506035550 | 49 | 290 | 2.0 | 7.0 | 0.00 | 0.02 | 0.02 | 52 | 1007.6 |
| 20260506034550 | 49 | 249 | 1.0 | 6.0 | 0.00 | 0.02 | 0.02 | 52 | 1007.5 |
| 20260506033547 | 49 | 307 | 1.0 | 4.0 | 0.00 | 0.02 | 0.02 | 52 | 1007.5 |
| 20260506032548 | 49 | 215 | 1.0 | 5.0 | 0.00 | 0.02 | 0.02 | 52 | 1007.6 |
| 20260506032029 | 49 | 0 | 0.0 | 5.0 | 0.00 | 0.02 | 0.02 | 53 | 1007.6 |
| 20260506031548 | 49 | 0 | 0.0 | 5.0 | 0.00 | 0.02 | 0.02 | 53 | 1007.6 |
| 20260506030543 | 49 | 0 | 1.0 | 5.0 | 0.00 | 0.02 | 0.02 | 52 | 1007.5 |
| 20260506030028 | 49 | 65 | 0.0 | 4.0 | 0.00 | 0.02 | 0.02 | 51 | 1007.6 |
| 20260506025754 | 49 | 65 | 0.0 | 4.0 | 0.00 | 0.02 | 0.02 | 51 | 1007.6 |
| 20260506024543 | 49 | 0 | 0.0 | 4.0 | 0.00 | 0.02 | 0.02 | 51 | 1007.8 |
| 20260506023542 | 49 | 0 | 0.0 | 4.0 | 0.00 | 0.02 | 0.02 | 50 | 1007.5 |
| 20260506022912 | 50 | 0 | 0.0 | 3.0 | 0.00 | 0.02 | 0.02 | 50 | 1007.6 |
| 20260506022646 | 50 | 0 | 0.0 | 2.0 | 0.00 | 0.02 | 0.02 | 50 | 1007.6 |
| 20260506021715 | 50 | 116 | 0.0 | 4.0 | 0.00 | 0.02 | 0.02 | 49 | 1007.7 |
| 20260506020538 | 50 | 0 | 0.0 | 3.0 | 0.00 | 0.02 | 0.02 | 50 | 1007.6 |
| 20260506015538 | 50 | 0 | 0.0 | 3.0 | 0.00 | 0.02 | 0.02 | 49 | 1007.3 |
| 20260506015021 | 50 | 0 | 0.0 | 3.0 | 0.00 | 0.02 | 0.02 | 48 | 1007.3 |
| 20260506014538 | 50 | 0 | 0.0 | 3.0 | 0.00 | 0.02 | 0.02 | 48 | 1007.3 |
| 20260506014456 | 50 | 293 | 0.0 | 3.0 | 0.00 | 0.02 | 0.02 | 49 | 1007.2 |
| 20260506013538 | 50 | 293 | 0.0 | 3.0 | 0.00 | 0.02 | 0.02 | 49 | 1007.2 |
| 20260506012539 | 51 | 0 | 0.0 | 3.0 | 0.00 | 0.02 | 0.02 | 48 | 1007.1 |
| 20260506011537 | 51 | 0 | 1.0 | 5.0 | 0.00 | 0.02 | 0.02 | 46 | 1007.1 |
| 20260506010538 | 51 | 117 | 0.0 | 4.0 | 0.00 | 0.02 | 0.02 | 48 | 1007.0 |
| 20260506005537 | 51 | 0 | 1.0 | 8.0 | 0.00 | 0.02 | 0.02 | 46 | 1007.0 |
| 20260506004537 | 51 | 0 | 0.0 | 3.0 | 0.00 | 0.02 | 0.02 | 47 | 1007.1 |
| 20260506003535 | 51 | 200 | 0.0 | 3.0 | 0.00 | 0.02 | 0.02 | 47 | 1007.0 |
| 20260506003505 | 52 | 176 | 0.0 | 3.0 | 0.00 | 0.02 | 0.02 | 48 | 1006.9 |
| 20260506002747 | 52 | 176 | 0.0 | 3.0 | 0.00 | 0.02 | 0.02 | 48 | 1006.9 |
| 20260506002015 | 52 | 0 | 0.0 | 4.0 | 0.00 | 0.02 | 0.02 | 47 | 1006.7 |
| 20260506001746 | 52 | 0 | 0.0 | 4.0 | 0.00 | 0.02 | 0.02 | 47 | 1006.7 |
| 20260506000534 | 52 | 0 | 1.0 | 6.0 | 0.00 | 0.02 | 0.02 | 47 | 1006.6 |
| 20260505235536 | 53 | 0 | 0.0 | 3.0 | 0.00 | 0.02 | 0.02 | 48 | 1006.5 |
| 20260505235456 | 53 | 0 | 1.0 | 9.0 | 0.00 | 0.02 | 0.02 | 48 | 1006.4 |
| 20260505234536 | 53 | 0 | 1.0 | 9.0 | 0.00 | 0.02 | 0.02 | 48 | 1006.4 |
| 20260505234021 | 53 | 0 | 0.0 | 4.0 | 0.00 | 0.02 | 0.02 | 51 | 1006.3 |
| 20260505233748 | 53 | 0 | 0.0 | 4.0 | 0.00 | 0.02 | 0.02 | 51 | 1006.3 |
| 20260505233019 | 53 | 0 | 0.0 | 2.0 | 0.00 | 0.02 | 0.02 | 56 | 1006.2 |
| 20260505232538 | 53 | 0 | 0.0 | 2.0 | 0.00 | 0.02 | 0.02 | 56 | 1006.2 |
| 20260505231533 | 54 | 197 | 0.0 | 4.0 | 0.00 | 0.02 | 0.02 | 54 | 1006.2 |
| 20260505231440 | 54 | 300 | 0.0 | 2.0 | 0.00 | 0.02 | 0.02 | 55 | 1006.2 |
| 20260505230742 | 54 | 300 | 0.0 | 2.0 | 0.00 | 0.02 | 0.02 | 55 | 1006.2 |
| 20260505225530 | 54 | 0 | 0.0 | 3.0 | 0.00 | 0.02 | 0.02 | 54 | 1006.3 |
| 20260505225018 | 54 | 0 | 0.0 | 3.0 | 0.00 | 0.02 | 0.02 | 55 | 1006.4 |
| 20260505224742 | 54 | 0 | 0.0 | 3.0 | 0.00 | 0.02 | 0.02 | 55 | 1006.4 |
| 20260505223531 | 54 | 0 | 1.0 | 5.0 | 0.00 | 0.02 | 0.02 | 54 | 1006.3 |
| 20260505223013 | 54 | 0 | 0.0 | 5.0 | 0.00 | 0.02 | 0.02 | 56 | 1006.4 |
| 20260505222529 | 54 | 0 | 0.0 | 5.0 | 0.00 | 0.02 | 0.02 | 56 | 1006.4 |
| 20260505221529 | 55 | 265 | 1.0 | 6.0 | 0.00 | 0.02 | 0.02 | 53 | 1006.5 |
| 20260505220529 | 55 | 0 | 0.0 | 4.0 | 0.00 | 0.02 | 0.02 | 55 | 1006.5 |
| 20260505220008 | 55 | 241 | 1.0 | 4.0 | 0.00 | 0.02 | 0.02 | 57 | 1006.5 |
| 20260505215741 | 55 | 241 | 1.0 | 4.0 | 0.00 | 0.02 | 0.02 | 57 | 1006.5 |
| 20260505215014 | 54 | 188 | 1.0 | 6.0 | 0.00 | 0.02 | 0.02 | 57 | 1006.4 |
| 20260505214742 | 54 | 188 | 1.0 | 6.0 | 0.00 | 0.02 | 0.02 | 57 | 1006.4 |
| 20260505213530 | 54 | 339 | 1.0 | 4.0 | 0.00 | 0.02 | 0.02 | 59 | 1006.3 |
| 20260505212530 | 54 | 0 | 1.0 | 5.0 | 0.00 | 0.02 | 0.02 | 62 | 1006.4 |
| 20260505211530 | 54 | 237 | 1.0 | 5.0 | 0.00 | 0.02 | 0.02 | 63 | 1006.4 |
| 20260505211013 | 54 | 0 | 0.0 | 3.0 | 0.00 | 0.02 | 0.02 | 63 | 1006.5 |
| 20260505210528 | 54 | 0 | 0.0 | 3.0 | 0.00 | 0.02 | 0.02 | 63 | 1006.5 |
| 20260505205530 | 54 | 0 | 1.0 | 6.0 | 0.00 | 0.02 | 0.02 | 64 | 1006.4 |
| 20260505204530 | 54 | 238 | 1.0 | 4.0 | 0.00 | 0.02 | 0.02 | 61 | 1006.4 |
| 20260505203530 | 54 | 256 | 1.0 | 4.0 | 0.00 | 0.02 | 0.02 | 62 | 1006.4 |
| 20260505202529 | 55 | 0 | 1.0 | 7.0 | 0.00 | 0.02 | 0.02 | 60 | 1006.4 |
| 20260505201530 | 55 | 0 | 1.0 | 6.0 | 0.00 | 0.02 | 0.02 | 62 | 1006.4 |
| 20260505201459 | 54 | 298 | 0.0 | 3.0 | 0.00 | 0.02 | 0.02 | 65 | 1006.5 |
| 20260505200529 | 54 | 298 | 0.0 | 3.0 | 0.00 | 0.02 | 0.02 | 65 | 1006.5 |
| 20260505195530 | 54 | 0 | 1.0 | 4.0 | 0.00 | 0.02 | 0.02 | 62 | 1006.6 |
| 20260505195017 | 54 | 249 | 2.0 | 6.0 | 0.00 | 0.02 | 0.02 | 62 | 1006.6 |
| 20260505194529 | 54 | 249 | 2.0 | 6.0 | 0.00 | 0.02 | 0.02 | 62 | 1006.6 |
| 20260505194013 | 54 | 241 | 3.0 | 8.0 | 0.00 | 0.02 | 0.02 | 61 | 1006.6 |
| 20260505193529 | 54 | 241 | 3.0 | 8.0 | 0.00 | 0.02 | 0.02 | 61 | 1006.6 |
| 20260505192529 | 54 | 244 | 2.0 | 9.0 | 0.00 | 0.02 | 0.02 | 60 | 1006.7 |
| 20260505191530 | 55 | 0 | 2.0 | 9.0 | 0.00 | 0.02 | 0.02 | 58 | 1006.6 |
| 20260505190651 | 55 | 305 | 3.0 | 10.0 | 0.00 | 0.02 | 0.02 | 59 | 1006.6 |
| 20260505190529 | 55 | 232 | 2.0 | 8.0 | 0.00 | 0.02 | 0.02 | 59 | 1006.6 |
| 20260505190108 | 55 | 305 | 3.0 | 10.0 | 0.00 | 0.02 | 0.02 | 59 | 1006.6 |
| 20260505184530 | 55 | 290 | 3.0 | 8.0 | 0.00 | 0.02 | 0.02 | 59 | 1006.6 |
| 20260505184006 | 55 | 0 | 2.0 | 8.0 | 0.00 | 0.02 | 0.02 | 60 | 1006.4 |
| 20260505183740 | 55 | 0 | 2.0 | 8.0 | 0.00 | 0.02 | 0.02 | 60 | 1006.4 |
| 20260505183015 | 56 | 342 | 2.0 | 7.0 | 0.00 | 0.02 | 0.02 | 60 | 1006.2 |
| 20260505182529 | 56 | 342 | 2.0 | 7.0 | 0.00 | 0.02 | 0.02 | 60 | 1006.2 |
| 20260505182454 | 56 | 257 | 2.0 | 9.0 | 0.00 | 0.02 | 0.02 | 64 | 1006.0 |
| 20260505181529 | 56 | 257 | 2.0 | 9.0 | 0.00 | 0.02 | 0.02 | 64 | 1006.0 |
| 20260505180531 | 55 | 192 | 2.0 | 8.0 | 0.00 | 0.02 | 0.02 | 63 | 1006.0 |
| 20260505175529 | 55 | 0 | 2.0 | 6.0 | 0.00 | 0.02 | 0.02 | 68 | 1005.9 |
| 20260505174530 | 55 | 115 | 2.0 | 7.0 | 0.00 | 0.02 | 0.02 | 69 | 1005.7 |
| 20260505174012 | 54 | 277 | 1.0 | 5.0 | 0.00 | 0.02 | 0.02 | 68 | 1005.9 |
| 20260505173528 | 54 | 277 | 1.0 | 5.0 | 0.00 | 0.02 | 0.02 | 68 | 1005.9 |
| 20260505172530 | 54 | 0 | 2.0 | 4.0 | 0.00 | 0.02 | 0.02 | 70 | 1005.8 |
| 20260505171531 | 54 | 0 | 2.0 | 7.0 | 0.00 | 0.02 | 0.02 | 69 | 1005.8 |
| 20260505170531 | 54 | 227 | 1.0 | 6.0 | 0.00 | 0.02 | 0.02 | 73 | 1005.8 |
| 20260505165530 | 52 | 0 | 1.0 | 6.0 | 0.00 | 0.01 | 0.02 | 79 | 1006.0 |
| 20260505164529 | 51 | 0 | 0.0 | 2.0 | 0.01 | 0.01 | 0.02 | 79 | 1006.1 |
| 20260505163529 | 50 | 81 | 1.0 | 4.0 | 0.01 | 0.01 | 0.02 | 80 | 1006.0 |
| 20260505162530 | 50 | 146 | 1.0 | 6.0 | 0.01 | 0.01 | 0.02 | 80 | 1006.1 |
| 20260505162011 | 49 | 0 | 0.0 | 2.0 | 0.01 | 0.01 | 0.02 | 81 | 1006.1 |
| 20260505161739 | 49 | 0 | 0.0 | 2.0 | 0.01 | 0.01 | 0.02 | 81 | 1006.1 |
| 20260505160529 | 49 | 0 | 0.0 | 3.0 | 0.01 | 0.01 | 0.01 | 80 | 1006.1 |
| 20260505160224 | 50 | 318 | 1.0 | 3.0 | 0.01 | 0.00 | 0.01 | 76 | 1006.1 |
| 20260505160114 | 50 | 318 | 1.0 | 3.0 | 0.01 | 0.00 | 0.01 | 76 | 1006.1 |
| 20260505153014 | 51 | 320 | 3.0 | 7.0 | 0.00 | 0.00 | 0.00 | 72 | 1006.2 |
| 20260505152530 | 51 | 320 | 3.0 | 7.0 | 0.00 | 0.00 | 0.00 | 72 | 1006.2 |
| 20260505152013 | 52 | 295 | 2.0 | 5.0 | 0.00 | 0.00 | 0.00 | 69 | 1005.8 |
| 20260505151741 | 52 | 295 | 2.0 | 5.0 | 0.00 | 0.00 | 0.00 | 69 | 1005.8 |
| 20260505151005 | 51 | 0 | 0.0 | 2.0 | 0.00 | 0.00 | 0.00 | 69 | 1005.7 |
| 20260505150741 | 51 | 0 | 0.0 | 2.0 | 0.00 | 0.00 | 0.00 | 69 | 1005.7 |
| 20260505124529 | 52 | 55 | 3.0 | 9.0 | 0.00 | 0.00 | 0.00 | 71 | 1003.3 |
| 20260505124018 | 52 | 49 | 3.0 | 7.0 | 0.00 | 0.00 | 0.00 | 72 | 1003.2 |
| 20260505123742 | 52 | 49 | 3.0 | 7.0 | 0.00 | 0.00 | 0.00 | 72 | 1003.2 |
| 20260505123014 | 51 | 0 | 2.0 | 7.0 | 0.00 | 0.00 | 0.00 | 75 | 1003.1 |
| 20260505122530 | 51 | 0 | 2.0 | 7.0 | 0.00 | 0.00 | 0.00 | 75 | 1003.1 |
| 20260505122517 | 51 | 354 | 3.0 | 7.0 | 0.00 | 0.00 | 0.00 | 77 | 1003.2 |
| 20260505121531 | 51 | 354 | 3.0 | 7.0 | 0.00 | 0.00 | 0.00 | 77 | 1003.2 |
| 20260505121010 | 52 | 2 | 2.0 | 7.0 | 0.00 | 0.00 | 0.00 | 77 | 1003.1 |
| 20260505120744 | 52 | 2 | 2.0 | 7.0 | 0.00 | 0.00 | 0.00 | 77 | 1003.1 |
| 20260505115531 | 53 | 16 | 2.0 | 7.0 | 0.00 | 0.00 | 0.00 | 79 | 1002.8 |
| 20260505115010 | 56 | 92 | 4.0 | 11.0 | 0.00 | 0.00 | 0.00 | 80 | 1002.7 |
| 20260505114744 | 56 | 92 | 4.0 | 11.0 | 0.00 | 0.00 | 0.00 | 80 | 1002.7 |
| 20260505114007 | 56 | 221 | 1.0 | 5.0 | 0.00 | 0.00 | 0.00 | 79 | 1002.1 |
| 20260505113742 | 56 | 221 | 1.0 | 5.0 | 0.00 | 0.00 | 0.00 | 79 | 1002.1 |
| 20260505112942 | 55 | 276 | 1.0 | 3.0 | 0.00 | 0.01 | 0.00 | 83 | 1001.7 |
| 20260505112721 | 56 | 299 | 1.0 | 5.0 | 0.00 | 0.01 | 0.00 | 81 | 1002.0 |
| 20260505111741 | 55 | 276 | 1.0 | 3.0 | 0.00 | 0.01 | 0.00 | 83 | 1001.7 |
| 20260505110530 | 55 | 239 | 0.0 | 1.0 | 0.00 | 0.01 | 0.00 | 85 | 1001.7 |
| 20260505101512 | 56 | 211 | 1.0 | 3.0 | 0.00 | 0.01 | 0.00 | 85 | 1000.6 |
| 20260505100511 | 56 | 223 | 1.0 | 3.0 | 0.00 | 0.01 | 0.00 | 85 | 1000.5 |
| 20260505095949 | 57 | 201 | 2.0 | 3.0 | 0.00 | 0.01 | 0.00 | 84 | 1000.2 |
| 20260505095503 | 57 | 201 | 2.0 | 3.0 | 0.00 | 0.01 | 0.00 | 84 | 1000.2 |
| 20260505094936 | 57 | 217 | 1.0 | 4.0 | 0.00 | 0.01 | 0.00 | 83 | 1000.2 |
| 20260505094714 | 57 | 217 | 1.0 | 4.0 | 0.00 | 0.01 | 0.00 | 83 | 1000.2 |
| 20260505093502 | 58 | 188 | 2.0 | 4.0 | 0.00 | 0.01 | 0.00 | 82 | 1000.0 |
| 20260505092502 | 58 | 223 | 2.0 | 5.0 | 0.00 | 0.01 | 0.00 | 80 | 999.9 |
| 20260505092159 | 58 | 231 | 2.0 | 8.0 | 0.00 | 0.01 | 0.00 | 79 | 999.8 |
| 20260505092038 | 58 | 231 | 2.0 | 8.0 | 0.00 | 0.01 | 0.00 | 79 | 999.8 |
| 20260505090502 | 59 | 215 | 2.0 | 5.0 | 0.00 | 0.01 | 0.00 | 77 | 999.8 |
| 20260505085502 | 59 | 232 | 2.0 | 4.0 | 0.00 | 0.01 | 0.00 | 76 | 999.8 |
| 20260505084502 | 59 | 224 | 2.0 | 4.0 | 0.00 | 0.01 | 0.00 | 75 | 999.8 |
| 20260505084149 | 60 | 231 | 2.0 | 4.0 | 0.00 | 0.01 | 0.00 | 74 | 999.7 |
| 20260505084004 | 60 | 231 | 2.0 | 4.0 | 0.00 | 0.01 | 0.00 | 74 | 999.7 |